Appleton, WI

12:20 PM CDT on July 26, 2017 (GMT -0500)
Outagamie County Regional

Weather History for KATW - January, 2013

Change the Weather History Date:

Thursday, January 17, 2013

  Actual Average Record
Temperature  
Mean Temperature 14 °F -  
Max Temperature 21 °F 24 °F 44 °F (1973)
Min Temperature 8 °F 7 °F -24 °F (1982)
Degree Days  
Heating Degree Days 50    
Moisture  
Dew Point 5 °F    
Average Humidity 65    
Maximum Humidity 79    
Minimum Humidity 45    
Precipitation  
Precipitation 0.00 in - - ()
Sea Level Pressure  
Sea Level Pressure 30.24 in    
Wind  
Wind Speed 10 mph (NW)    
Max Wind Speed 17 mph    
Max Gust Speed 25 mph    
Visibility 10 miles    
Events      
Averages and records for this station are not official NWS values.
T = Trace of Precipitation, MM = Missing Value Source: NWS Daily Summary

Daily Weather History Graph

Daily Weather History Graph

Search for Another Location

Airport or City:

Trip Planner

Search our weather history database for the weather conditions in past years. The results will help you decide how hot, cold, wet, or windy it might be!

Date:

Astronomy

Jan. 17, 2013 Rise Set
Actual Time 7:25 AM CST 4:43 PM CST
Civil Twilight 6:53 AM CST 5:16 PM CST
Nautical Twilight 6:17 AM CST 5:51 PM CST
Astronomical Twilight 5:42 AM CST 6:26 PM CST
Moon 10:15 AM CST (1/17) 11:53 PM CST (1/17)
Length of Visible Light 10h 23m
Length of Day
9h 18m
Waxing Crescent, 38% of the Moon is Illuminated
Jan 17
Waxing Crescent
Jan 18
First Quarter
Jan 26
Full
Feb 3
Last Quarter
Feb 10
New

Hourly Weather History & Observations

Time (CST) Temp. Windchill Dew Point Humidity Pressure Visibility Wind Dir Wind Speed Gust Speed Precip Events Conditions
12:15 AM 21.2 °F 10.1 °F 12.2 °F 68% 30.07 in 10.0 mi NW 10.4 mph - N/A   Clear
12:35 AM 21.2 °F 10.1 °F 10.4 °F 63% 30.07 in 10.0 mi NW 10.4 mph - N/A   Clear
12:55 AM 21.2 °F 9.5 °F 10.4 °F 63% 30.09 in 10.0 mi NW 11.5 mph - N/A   Clear
1:15 AM 21.2 °F 10.9 °F 10.4 °F 63% 30.09 in 10.0 mi NW 9.2 mph - N/A   Clear
1:35 AM 19.4 °F 9.5 °F 10.4 °F 68% 30.10 in 10.0 mi NW 8.1 mph - N/A   Clear
2:15 AM 19.4 °F 8.6 °F 10.4 °F 68% 30.13 in 10.0 mi NW 9.2 mph - N/A   Clear
2:35 AM 19.4 °F 8.6 °F 10.4 °F 68% 30.14 in 10.0 mi NW 9.2 mph - N/A   Clear
2:55 AM 17.6 °F 7.3 °F 10.4 °F 73% 30.14 in 10.0 mi NW 8.1 mph - N/A   Clear
3:35 AM 17.6 °F 5.0 °F 8.6 °F 68% 30.15 in 10.0 mi NW 11.5 mph - N/A   Clear
3:55 AM 17.6 °F 8.2 °F 8.6 °F 68% 30.16 in 10.0 mi NW 6.9 mph - N/A   Clear
4:15 AM 14.0 °F 2.9 °F 6.8 °F 73% 30.17 in 10.0 mi NW 8.1 mph - N/A   Clear
5:15 AM 14.0 °F 3.9 °F 5.0 °F 67% 30.20 in 10.0 mi WNW 6.9 mph - N/A   Clear
5:45 AM 14.0 °F 2.9 °F 5.0 °F 67% 30.20 in 10.0 mi WNW 8.1 mph - N/A   Clear
6:45 AM 10.4 °F -1.5 °F 3.2 °F 73% 30.23 in 10.0 mi West 8.1 mph - N/A   Clear
7:45 AM 10.4 °F -1.5 °F 3.2 °F 73% 30.25 in 10.0 mi West 8.1 mph - N/A   Clear
8:53 AM 12.2 °F -1.8 °F 3.2 °F 67% 30.30 in 10.0 mi WNW 11.5 mph - N/A   Scattered Clouds
9:45 AM 14.0 °F -0.8 °F -0.4 °F 53% 30.30 in 10.0 mi NNW 13.8 mph - N/A   Scattered Clouds
10:45 AM 15.8 °F 0.9 °F -0.4 °F 49% 30.31 in 10.0 mi NW 15.0 mph - N/A   Partly Cloudy
11:30 AM 15.8 °F 2.1 °F -0.4 °F 49% 30.30 in 10.0 mi South 12.7 mph - N/A   Mostly Cloudy
11:45 AM 15.8 °F 4.2 °F -0.4 °F 49% 30.29 in 10.0 mi West 9.2 mph - N/A   Mostly Cloudy
12:45 PM 17.6 °F 4.3 °F -0.4 °F 45% 30.26 in 10.0 mi WSW 12.7 mph 18.4 mph N/A   Mostly Cloudy
1:45 PM 17.6 °F 2.2 °F 1.4 °F 49% 30.27 in 10.0 mi West 17.3 mph 25.3 mph N/A   Mostly Cloudy
2:45 PM 19.4 °F 5.0 °F 1.4 °F 46% 30.27 in 10.0 mi WNW 16.1 mph - N/A   Scattered Clouds
3:45 PM 17.6 °F 4.3 °F 3.2 °F 53% 30.27 in 10.0 mi NW 12.7 mph - N/A   Scattered Clouds
5:45 PM 14.0 °F 2.9 °F 3.2 °F 62% 30.31 in 10.0 mi NW 8.1 mph - N/A   Scattered Clouds
6:45 PM 10.4 °F 0.8 °F 3.2 °F 73% 30.32 in 10.0 mi WNW 5.8 mph - N/A   Scattered Clouds
7:45 PM 10.4 °F 2.2 °F 3.2 °F 73% 30.34 in 10.0 mi NW 4.6 mph - N/A   Clear
9:45 PM 8.6 °F -1.3 °F 1.4 °F 73% 30.35 in 10.0 mi NW 5.8 mph - N/A   Clear
9:55 PM 10.4 °F 0.8 °F 3.2 °F 73% 30.35 in 10.0 mi NW 5.8 mph - N/A   Clear
10:45 PM 10.4 °F 0.8 °F 3.2 °F 73% 30.34 in 10.0 mi NW 5.8 mph - N/A   Clear
11:15 PM 8.6 °F 0.1 °F 3.2 °F 79% 30.35 in 10.0 mi NW 4.6 mph - N/A   Clear
11:35 PM 8.6 °F 0.1 °F 3.2 °F 79% 30.35 in 10.0 mi NW 4.6 mph - N/A   Clear
11:55 PM 8.6 °F 0.1 °F 3.2 °F 79% 30.35 in 10.0 mi WNW 4.6 mph - N/A   Clear